WX2NJ Weather Reports


Display with metric or nautical units.
time (UTC)temp
F
wind
direction
speed
MPH
gust
MPH
rain 1hr
in
rain 24hr
in
rain mn
in
humidity
%
barometer
mb
20260905065645 74 175 2.0 2.0 0.00 0.00 0.00 76 1013.3
20260905065140 74 172 0.0 2.0 0.00 0.00 0.00 76 1013.4
20260905064635 74 169 2.0 2.0 0.00 0.00 0.00 74 1013.2
20260905064131 74 180 0.0 2.0 0.00 0.00 0.00 74 1013.4
20260905063629 74 200 1.0 3.0 0.00 0.00 0.00 72 1013.2
20260905063126 75 180 0.0 2.0 0.00 0.00 0.00 74 1013.2
20260905062621 74 180 2.0 2.0 0.00 0.00 0.00 74 1013.3
20260905062120 74 180 0.0 1.0 0.00 0.00 0.00 77 1013.2
20260905061615 74 180 0.0 2.0 0.00 0.00 0.00 77 1013.1
20260905061115 74 172 0.0 2.0 0.00 0.00 0.00 78 1013.1
20260905060610 74 180 0.0 3.0 0.00 0.00 0.00 80 1013.4
20260905060107 74 180 0.0 2.0 0.00 0.00 0.00 80 1013.2
20260905055605 73 191 2.0 2.0 0.00 0.00 0.00 81 1013.3
20260905055100 74 180 1.0 2.0 0.00 0.00 0.00 83 1013.2
20260905054556 74 174 0.0 1.0 0.00 0.00 0.00 83 1013.2
20260905054051 74 173 1.0 3.0 0.00 0.00 0.00 84 1013.4
20260905053550 73 191 0.0 2.0 0.00 0.00 0.00 84 1013.4
20260905053046 74 173 0.0 1.0 0.00 0.00 0.00 85 1013.4
20260905052545 74 166 0.0 1.0 0.00 0.00 0.00 85 1013.4
20260905052040 73 180 0.0 1.0 0.00 0.00 0.00 85 1013.6
20260905051536 73 180 0.0 1.0 0.00 0.00 0.00 85 1013.6
20260905051033 73 180 0.0 1.0 0.00 0.00 0.00 86 1013.6
20260905050528 74 172 0.0 1.0 0.00 0.00 0.00 86 1013.6
20260905050025 73 188 0.0 0.0 0.00 0.00 0.00 87 1013.8
20260905045519 73 180 0.0 1.0 0.00 0.00 0.00 87 1013.7
20260905045014 74 172 0.0 2.0 0.00 0.00 0.00 87 1013.7
20260905044509 74 169 2.0 2.0 0.00 0.00 0.00 87 1013.9
20260905044008 74 157 0.0 2.0 0.00 0.00 0.00 87 1014.0
20260905043508 74 175 0.0 2.0 0.00 0.00 0.00 87 1014.2
20260905043003 74 174 0.0 1.0 0.00 0.00 0.00 87 1014.1
20260905042456 74 180 0.0 1.0 0.00 0.00 0.00 87 1014.0
20260905041952 75 180 0.0 1.0 0.00 0.00 0.00 87 1014.0
20260905041448 74 180 0.0 0.0 0.00 0.00 0.00 87 1014.2
20260905040943 75 180 0.0 1.0 0.00 0.00 0.00 87 1014.1
20260905040442 75 194 1.0 1.0 0.00 0.00 0.00 87 1014.3
20260905035941 75 180 0.0 1.0 0.00 0.02 0.02 87 1014.2
20260905035437 75 165 0.0 2.0 0.00 0.02 0.02 87 1014.2
20260905034934 75 180 0.0 1.0 0.00 0.02 0.02 87 1014.2
20260905034429 75 180 0.0 2.0 0.00 0.02 0.02 87 1014.2
20260905033928 75 180 0.0 2.0 0.00 0.02 0.02 87 1014.0
20260905033423 75 175 2.0 2.0 0.00 0.02 0.02 87 1014.1
20260905032922 75 180 0.0 1.0 0.00 0.02 0.02 87 1013.9
20260905032418 75 180 0.0 2.0 0.00 0.02 0.02 86 1013.9
20260905031912 75 188 0.0 1.0 0.00 0.02 0.02 86 1013.8
20260905031403 76 180 0.0 0.0 0.00 0.02 0.02 86 1013.9
20260905030858 76 180 0.0 2.0 0.00 0.02 0.02 86 1013.9
20260905030348 76 195 0.0 1.0 0.00 0.02 0.02 86 1013.9
20260905025847 76 180 2.0 2.0 0.00 0.02 0.02 85 1013.9
20260905025342 76 174 0.0 2.0 0.00 0.02 0.02 86 1014.0
20260905024839 76 151 0.0 1.0 0.00 0.02 0.02 86 1013.8
20260905024333 76 166 0.0 2.0 0.00 0.02 0.02 86 1013.8
20260905023829 76 157 0.0 1.0 0.00 0.02 0.02 86 1013.9
20260905023325 76 165 1.0 2.0 0.00 0.02 0.02 86 1014.1
20260905022823 76 162 0.0 1.0 0.00 0.02 0.02 86 1013.7
20260905022318 76 180 0.0 2.0 0.00 0.02 0.02 85 1014.1
20260905021819 77 172 0.0 2.0 0.00 0.02 0.02 85 1014.0
20260905021314 76 180 0.0 1.0 0.00 0.02 0.02 85 1013.8
20260905020808 77 165 0.0 2.0 0.00 0.02 0.02 85 1013.9
20260905020303 77 195 1.0 2.0 0.00 0.02 0.02 85 1014.0
20260905015802 77 188 0.0 2.0 0.00 0.02 0.02 84 1013.8
20260905015256 77 188 0.0 0.0 0.00 0.02 0.02 84 1013.9
20260905014755 77 180 0.0 1.0 0.00 0.02 0.02 84 1013.9
20260905014251 77 192 0.0 2.0 0.00 0.02 0.02 84 1014.1
20260905013747 77 180 0.0 1.0 0.00 0.02 0.02 84 1014.0
20260905013243 76 165 1.0 1.0 0.00 0.02 0.02 84 1014.0
20260905012738 76 180 0.0 0.0 0.00 0.02 0.02 84 1014.0
20260905012233 77 180 0.0 2.0 0.00 0.02 0.02 84 1013.9
20260905011730 76 180 0.0 2.0 0.00 0.02 0.02 83 1013.9
20260905011226 76 172 0.0 1.0 0.00 0.02 0.02 83 1013.9
20260905010726 76 180 0.0 1.0 0.00 0.02 0.02 83 1013.8
20260905010221 76 172 0.0 1.0 0.00 0.02 0.02 83 1013.8
20260905005718 77 174 0.0 1.0 0.00 0.02 0.02 83 1013.9
20260905005213 77 165 0.0 0.0 0.00 0.02 0.02 82 1013.8
20260905004707 77 173 0.0 1.0 0.00 0.02 0.02 82 1013.9
20260905004203 77 180 0.0 0.0 0.00 0.02 0.02 82 1013.7
20260905003657 77 165 0.0 1.0 0.00 0.02 0.02 82 1013.7
20260905003154 77 145 0.0 1.0 0.00 0.02 0.02 82 1013.5
20260905002649 77 165 0.0 1.0 0.00 0.02 0.02 82 1013.6
20260905002149 77 180 1.0 1.0 0.00 0.02 0.02 81 1013.2
20260905001644 77 180 0.0 0.0 0.00 0.02 0.02 81 1013.2
20260905001143 77 173 0.0 1.0 0.00 0.02 0.02 80 1013.3
20260905000639 77 180 0.0 0.0 0.00 0.02 0.02 80 1013.4
20260905000135 78 180 0.0 0.0 0.00 0.02 0.02 79 1013.5
20260904235634 78 180 0.0 0.0 0.00 0.02 0.02 79 1013.4
20260904235133 78 180 0.0 0.0 0.00 0.02 0.02 79 1013.4
20260904234629 78 180 0.0 0.0 0.00 0.02 0.02 79 1013.5
20260904234125 78 180 0.0 1.0 0.00 0.02 0.02 78 1013.6
20260904233620 79 180 0.0 0.0 0.00 0.02 0.02 77 1013.7
20260904233116 79 188 0.0 1.0 0.00 0.02 0.02 76 1013.7
20260904232612 79 180 0.0 1.0 0.00 0.02 0.02 76 1013.7
20260904232108 80 180 0.0 1.0 0.00 0.02 0.02 76 1013.6
20260904231604 80 165 1.0 1.0 0.00 0.02 0.02 76 1013.8
20260904231058 80 157 0.0 2.0 0.00 0.02 0.02 75 1013.6
20260904230558 81 180 0.0 1.0 0.00 0.02 0.02 74 1013.4
20260904230054 81 172 0.0 1.0 0.00 0.02 0.02 74 1013.7
20260904225550 81 8 0.0 0.0 0.00 0.02 0.02 73 1013.7
20260904225046 81 145 0.0 0.0 0.00 0.02 0.02 73 1013.6
20260904224540 81 151 0.0 2.0 0.00 0.02 0.02 73 1013.7
20260904224040 81 172 0.0 1.0 0.00 0.02 0.02 73 1013.8
20260904223539 82 166 0.0 1.0 0.00 0.02 0.02 73 1013.7
20260904223035 82 175 2.0 2.0 0.00 0.02 0.02 71 1013.8
20260904222531 82 180 0.0 3.0 0.00 0.02 0.02 71 1013.6
20260904222026 82 172 0.0 1.0 0.00 0.02 0.02 71 1013.6
20260904221521 82 180 0.0 1.0 0.00 0.02 0.02 70 1013.7
20260904221015 82 162 1.0 2.0 0.00 0.02 0.02 70 1013.6
20260904220514 82 195 0.0 2.0 0.00 0.02 0.02 70 1013.7
20260904220011 82 180 0.0 2.0 0.00 0.02 0.02 70 1013.7
20260904215505 83 117 0.0 4.0 0.00 0.02 0.02 66 1013.6
20260904215001 84 157 0.0 4.0 0.00 0.02 0.02 65 1013.9
20260904214456 84 215 0.0 3.0 0.00 0.02 0.02 66 1013.7
20260904213951 84 87 3.0 5.0 0.00 0.02 0.02 64 1013.8
20260904213450 84 180 1.0 3.0 0.00 0.02 0.02 65 1014.0
20260904212946 84 212 0.0 4.0 0.00 0.02 0.02 66 1013.8
20260904212446 85 185 0.0 5.0 0.00 0.02 0.02 66 1013.4
20260904211941 85 135 0.0 3.0 0.00 0.02 0.02 63 1013.6
20260904211440 85 127 2.0 5.0 0.00 0.02 0.02 66 1013.1
20260904210937 86 180 0.0 2.0 0.00 0.02 0.02 63 1013.4
20260904210435 86 78 3.0 3.0 0.00 0.02 0.02 62 1013.3
20260904205931 86 240 0.0 3.0 0.00 0.02 0.02 62 1013.5
20260904205426 85 198 2.0 5.0 0.00 0.02 0.02 64 1013.6
20260904204924 86 234 0.0 4.0 0.00 0.02 0.02 66 1013.7
20260904204419 86 174 1.0 5.0 0.00 0.02 0.02 61 1013.8
20260904203915 86 140 2.0 3.0 0.00 0.02 0.02 62 1013.8
20260904203412 86 60 1.0 5.0 0.00 0.02 0.02 60 1013.9
20260904202907 87 83 1.0 5.0 0.00 0.02 0.02 60 1013.9
20260904202403 86 123 0.0 3.0 0.00 0.02 0.02 62 1013.9
20260904201859 87 180 0.0 3.0 0.00 0.02 0.02 62 1013.9
20260904201353 87 114 0.0 2.0 0.00 0.02 0.02 61 1013.8
20260904200849 86 160 0.0 4.0 0.00 0.02 0.02 61 1014.0
20260904200347 86 262 1.0 3.0 0.00 0.02 0.02 65 1014.0
20260904195842 85 172 1.0 3.0 0.00 0.02 0.02 66 1014.2
20260904195340 84 144 2.0 4.0 0.00 0.02 0.02 67 1014.1
20260904194835 85 169 0.0 3.0 0.00 0.02 0.02 66 1014.1
20260904194335 86 212 2.0 3.0 0.00 0.02 0.02 66 1014.1
20260904193830 86 172 0.0 2.0 0.00 0.02 0.02 64 1014.2
20260904193325 87 180 0.0 2.0 0.00 0.02 0.02 63 1014.4
20260904192821 87 232 0.0 6.0 0.00 0.02 0.02 63 1014.4
20260904192316 88 165 0.0 2.0 0.00 0.02 0.02 64 1014.4
20260904191813 88 180 1.0 3.0 0.00 0.02 0.02 64 1014.4
20260904191309 87 154 0.0 4.0 0.00 0.02 0.02 61 1014.6
20260904190805 87 233 2.0 8.0 0.00 0.02 0.02 62 1014.8
20260904190301 87 90 1.0 2.0 0.00 0.02 0.02 64 1014.4
20260904185756 88 192 2.0 3.0 0.00 0.02 0.02 60 1014.6
20260904185252 87 6 3.0 4.0 0.00 0.02 0.02 64 1014.4
20260904184751 86 200 1.0 3.0 0.00 0.02 0.02 63 1014.6
20260904184246 85 340 0.0 3.0 0.00 0.02 0.02 69 1014.5
20260904183742 86 209 0.0 5.0 0.00 0.02 0.02 65 1014.8
20260904183237 87 15 2.0 7.0 0.00 0.02 0.02 60 1014.6
20260904182732 88 145 1.0 3.0 0.00 0.02 0.02 62 1014.7
20260904182227 88 98 0.0 2.0 0.00 0.02 0.02 60 1014.8
20260904181723 86 254 0.0 4.0 0.00 0.02 0.02 61 1014.9
20260904181222 87 348 1.0 2.0 0.00 0.02 0.02 62 1014.8
20260904180718 87 237 0.0 3.0 0.00 0.02 0.02 63 1014.7
20260904180213 87 150 2.0 3.0 0.00 0.02 0.02 59 1014.6
20260904175712 87 17 3.0 5.0 0.00 0.02 0.02 56 1014.7
20260904175210 88 150 3.0 3.0 0.00 0.02 0.02 59 1014.7
20260904174705 86 143 2.0 5.0 0.00 0.02 0.02 60 1014.8
20260904174201 87 117 3.0 4.0 0.00 0.02 0.02 59 1014.7
20260904173657 87 170 0.0 3.0 0.00 0.02 0.02 60 1014.9
20260904173152 86 48 2.0 6.0 0.00 0.02 0.02 58 1014.8
20260904172648 87 278 1.0 5.0 0.00 0.02 0.02 62 1014.7
20260904172147 87 198 2.0 2.0 0.00 0.02 0.02 61 1014.7
20260904171642 88 221 2.0 8.0 0.00 0.02 0.02 58 1014.6
20260904171138 88 180 0.0 6.0 0.00 0.02 0.02 59 1014.6
20260904170634 88 41 0.0 6.0 0.00 0.02 0.02 54 1014.7
20260904170129 88 170 2.0 3.0 0.00 0.02 0.02 56 1014.7
20260904165628 88 320 2.0 5.0 0.00 0.02 0.02 57 1014.7
20260904165122 88 187 0.0 3.0 0.00 0.02 0.02 58 1014.5
20260904164622 88 111 4.0 5.0 0.00 0.02 0.02 55 1014.5
20260904164118 88 203 0.0 3.0 0.00 0.02 0.02 62 1014.7
20260904163613 88 237 2.0 4.0 0.00 0.02 0.02 58 1014.8
20260904163108 88 7 2.0 5.0 0.00 0.02 0.02 59 1014.7
20260904162602 87 264 0.0 7.0 0.00 0.02 0.02 58 1014.6
20260904162057 87 261 1.0 5.0 0.00 0.02 0.02 60 1014.8
20260904161552 87 26 2.0 6.0 0.00 0.02 0.02 58 1014.7
20260904161048 87 120 0.0 6.0 0.00 0.02 0.02 58 1014.7
20260904160543 88 0 0.0 3.0 0.00 0.02 0.02 58 1015.0
20260904160039 87 352 0.0 5.0 0.00 0.02 0.02 59 1014.9
20260904155538 87 94 0.0 7.0 0.00 0.02 0.02 57 1014.8
20260904155032 87 159 2.0 5.0 0.00 0.02 0.02 59 1014.9
20260904154526 87 21 3.0 4.0 0.00 0.02 0.02 57 1014.8
20260904154021 88 315 2.0 3.0 0.00 0.02 0.02 61 1015.0
20260904153521 87 66 0.0 2.0 0.00 0.02 0.02 59 1015.0
20260904153017 86 311 2.0 9.0 0.00 0.02 0.02 61 1014.9
20260904152513 86 40 3.0 4.0 0.00 0.02 0.02 61 1015.0
20260904152008 86 163 2.0 11.0 0.00 0.02 0.02 65 1014.9
20260904151502 87 270 0.0 7.0 0.00 0.02 0.02 65 1015.0
20260904150956 87 186 3.0 4.0 0.00 0.02 0.02 63 1015.0
20260904150452 87 225 3.0 8.0 0.00 0.02 0.02 63 1015.1
20260904145950 86 125 3.0 6.0 0.00 0.02 0.02 63 1014.9
20260904145446 86 123 3.0 9.0 0.00 0.02 0.02 62 1014.9
20260904144941 87 199 2.0 3.0 0.00 0.02 0.02 66 1014.9
20260904144437 86 185 2.0 4.0 0.00 0.02 0.02 66 1015.0
20260904143932 87 154 6.0 6.0 0.00 0.02 0.02 68 1015.0
20260904143429 86 270 1.0 6.0 0.00 0.02 0.02 67 1014.9
20260904142925 85 210 2.0 5.0 0.00 0.02 0.02 67 1015.0
20260904142421 85 187 0.0 4.0 0.00 0.02 0.02 69 1014.9
20260904141915 86 123 0.0 3.0 0.00 0.02 0.02 71 1015.1
20260904141410 85 120 0.0 4.0 0.00 0.02 0.02 71 1015.3
20260904140907 84 119 2.0 6.0 0.00 0.02 0.02 73 1014.9
20260904140401 84 163 5.0 5.0 0.00 0.02 0.02 73 1015.0
20260904135900 84 105 3.0 6.0 0.00 0.02 0.02 72 1014.9
20260904135355 84 245 0.0 4.0 0.00 0.02 0.02 73 1015.1
20260904134851 84 129 2.0 5.0 0.00 0.02 0.02 75 1015.2
20260904134351 84 194 1.0 4.0 0.00 0.02 0.02 75 1015.0
20260904133845 84 245 0.0 5.0 0.00 0.02 0.02 75 1014.8
20260904133341 83 234 1.0 3.0 0.00 0.02 0.02 77 1014.6
20260904132840 83 148 2.0 4.0 0.00 0.02 0.02 79 1014.7
20260904132336 83 131 3.0 3.0 0.00 0.02 0.02 77 1014.7
20260904131830 82 129 2.0 4.0 0.00 0.02 0.02 79 1014.8
20260904131325 82 90 0.0 3.0 0.00 0.02 0.02 81 1014.8
20260904130820 81 270 1.0 5.0 0.00 0.02 0.02 84 1014.7
20260904130319 79 180 2.0 3.0 0.00 0.02 0.02 86 1014.9
20260904125815 79 192 2.0 3.0 0.00 0.02 0.02 87 1014.8
20260904125311 79 209 0.0 3.0 0.00 0.02 0.02 87 1015.1
20260904124810 78 180 2.0 5.0 0.00 0.02 0.02 87 1014.7
20260904124307 78 77 0.0 3.0 0.00 0.02 0.02 88 1014.7
20260904123802 77 175 1.0 3.0 0.00 0.02 0.02 89 1014.9
20260904123257 77 180 3.0 5.0 0.00 0.02 0.02 89 1014.8
20260904122752 77 229 0.0 3.0 0.00 0.02 0.02 89 1014.9
20260904122251 77 180 0.0 2.0 0.00 0.02 0.02 90 1014.7
20260904121747 76 173 1.0 3.0 0.00 0.02 0.02 90 1014.9
20260904121243 76 190 0.0 2.0 0.00 0.02 0.02 91 1014.6
20260904120739 76 175 2.0 3.0 0.00 0.02 0.02 91 1014.6
20260904120235 76 195 2.0 4.0 0.00 0.02 0.02 92 1014.8
20260904115735 76 161 0.0 3.0 0.00 0.02 0.02 92 1014.8
20260904115229 75 154 0.0 3.0 0.00 0.02 0.02 92 1014.8
20260904114725 75 97 1.0 3.0 0.00 0.02 0.02 92 1014.6
20260904114219 75 185 2.0 2.0 0.00 0.02 0.02 92 1014.9
20260904113714 75 180 0.0 2.0 0.00 0.02 0.02 92 1014.7
20260904113213 74 180 0.0 2.0 0.00 0.02 0.02 92 1014.7
20260904112708 74 127 2.0 3.0 0.00 0.02 0.02 92 1014.7
20260904112204 74 157 0.0 2.0 0.00 0.02 0.02 92 1014.5
20260904111659 74 180 0.0 2.0 0.00 0.02 0.02 92 1014.3
20260904111154 74 140 0.0 3.0 0.00 0.02 0.02 92 1014.2
20260904110650 74 180 0.0 3.0 0.00 0.02 0.02 92 1014.4
20260904110149 74 135 3.0 4.0 0.00 0.02 0.02 92 1014.1
20260904105644 74 135 0.0 2.0 0.00 0.02 0.02 92 1014.2
20260904105139 74 194 0.0 2.0 0.00 0.02 0.02 92 1014.3
20260904104635 74 114 1.0 3.0 0.00 0.02 0.02 92 1014.3
20260904104130 74 132 0.0 2.0 0.00 0.02 0.02 92 1014.0
20260904103626 74 124 3.0 3.0 0.00 0.02 0.02 92 1014.1
20260904103122 74 165 0.0 2.0 0.00 0.02 0.02 92 1014.0
20260904102617 74 150 2.0 4.0 0.00 0.02 0.02 92 1014.0
20260904102113 74 180 1.0 1.0 0.00 0.02 0.02 92 1014.1
20260904101609 74 186 1.0 3.0 0.00 0.02 0.02 92 1014.3
20260904101105 74 165 2.0 4.0 0.00 0.02 0.02 92 1014.1
20260904100600 74 180 1.0 2.0 0.00 0.02 0.02 92 1014.0
20260904100055 74 180 1.0 2.0 0.00 0.02 0.02 92 1013.8
20260904095550 74 135 2.0 3.0 0.00 0.02 0.02 92 1013.9
20260904095045 74 110 4.0 4.0 0.00 0.02 0.02 92 1014.0
20260904094539 74 191 0.0 3.0 0.00 0.02 0.02 92 1013.9
20260904094035 74 145 1.0 2.0 0.00 0.02 0.02 92 1014.0
20260904093532 74 169 2.0 4.0 0.00 0.02 0.02 92 1014.0
20260904093031 74 185 1.0 2.0 0.00 0.02 0.02 92 1014.0
20260904092527 74 113 0.0 3.0 0.00 0.02 0.02 92 1013.7
20260904092024 74 180 2.0 3.0 0.00 0.02 0.02 92 1013.9
20260904091519 73 151 0.0 3.0 0.00 0.02 0.02 92 1013.7
20260904091019 73 166 2.0 3.0 0.00 0.02 0.02 92 1014.0
20260904090514 74 144 2.0 3.0 0.00 0.02 0.02 92 1014.0
20260904090010 74 117 0.0 3.0 0.00 0.02 0.02 92 1014.2
20260904085505 74 166 0.0 2.0 0.00 0.02 0.02 92 1013.9
20260904085004 74 161 2.0 2.0 0.00 0.02 0.02 92 1014.0
20260904084501 74 148 2.0 2.0 0.00 0.02 0.02 92 1014.0
20260904083956 74 161 0.0 4.0 0.00 0.02 0.02 92 1014.3
20260904083452 74 139 2.0 4.0 0.00 0.02 0.02 92 1014.2
20260904082948 74 117 2.0 2.0 0.00 0.02 0.02 92 1014.3
20260904082443 74 129 4.0 4.0 0.00 0.02 0.02 92 1014.1
20260904081937 74 180 2.0 2.0 0.00 0.02 0.02 92 1014.3
20260904081433 74 121 2.0 3.0 0.00 0.02 0.02 92 1014.0
20260904080929 74 187 0.0 2.0 0.00 0.02 0.02 92 1014.0
20260904080424 75 180 1.0 2.0 0.00 0.02 0.02 92 1013.8
20260904075920 75 168 0.0 2.0 0.00 0.02 0.02 92 1013.8
20260904075416 75 194 0.0 1.0 0.00 0.02 0.02 92 1013.8
20260904074914 75 175 1.0 2.0 0.00 0.02 0.02 92 1013.9
20260904074410 75 180 2.0 2.0 0.00 0.02 0.02 92 1013.8
20260904073905 75 180 0.0 2.0 0.00 0.02 0.02 92 1013.8
20260904073401 75 173 1.0 2.0 0.00 0.02 0.02 92 1014.0
20260904072856 75 187 0.0 3.0 0.00 0.02 0.02 92 1013.9
20260904072351 75 173 0.0 1.0 0.00 0.02 0.02 92 1014.1
20260904071846 75 165 0.0 0.0 0.00 0.02 0.02 92 1014.0
20260904071342 75 165 0.0 1.0 0.00 0.02 0.02 92 1013.8
20260904070836 75 131 0.0 2.0 0.00 0.02 0.02 92 1013.4
20260904070335 75 90 0.0 0.0 0.00 0.02 0.02 92 1013.6
20260904065830 75 165 0.0 2.0 0.00 0.02 0.02 92 1013.8